Weather History for Watsonville, CA

Change the Weather History Date:

Tuesday, January 7, 2014

  Actual Average Record
Temperature  
Mean Temperature 52 °F 50 °F  
Max Temperature 62 °F 61 °F 72 °F (2003)
Min Temperature 42 °F 39 °F 32 °F (1999)
Degree Days  
Heating Degree Days 13    
Month to date heating degree days 75  
Since 1 July heating degree days 1205  
Cooling Degree Days 0    
Month to date cooling degree days 0  
Year to date cooling degree days 0  
Growing Degree Days 3 (Base 50)    
Moisture  
Dew Point 41 °F    
Average Humidity 72    
Maximum Humidity 100    
Minimum Humidity 43    
Precipitation  
Precipitation 0.00 in - 1.25 in (1993)
Month to date precipitation 0.00  
Year to date precipitation 0.00  
Since 1 July precipitation 1.07  
Sea Level Pressure  
Sea Level Pressure 30.18 in    
Wind  
Wind Speed 3 mph (NW)    
Max Wind Speed 10 mph    
Max Gust Speed 21 mph    
Visibility 8 miles    
Events Fog    
T = Trace of Precipitation, MM = Missing Value Source: NWS Daily Summary

Daily Weather History Graph

Daily Weather History Graph

Search for Another Location

Airport:

Trip Planner

Search our weather history database for the weather conditions in past years. The results will help you decide how hot, cold, wet, or windy it might be!

Date:

Astronomy

Jan. 07, 2014 Rise Set
Actual Time 7:20 AM PST 5:06 PM PST
Civil Twilight 6:52 AM PST 5:35 PM PST
Nautical Twilight 6:19 AM PST 6:07 PM PST
Astronomical Twilight 5:48 AM PST 6:38 PM PST
Moon 11:23 AM PST (1/7) No Moon Set
Length of Visible Light 10h 43m
Length of Day
9h 45m
Waxing Crescent, 46% of the Moon is Illuminated
Jan 7
Waxing Crescent
Jan 7
First Quarter
Jan 15
Full
Jan 23
Last Quarter
Jan 30
New

Hourly Weather History & Observations

Time (PST) Temp. Windchill Dew Point Humidity Pressure Visibility Wind Dir Wind Speed Gust Speed Precip Events Conditions
12:53 AM 46.0 °F 44.8 °F 39.9 °F 79% 30.18 in 10.0 mi West 3.5 mph - N/A   Clear
1:53 AM 46.9 °F - 39.0 °F 74% 30.19 in 10.0 mi Calm Calm - N/A   Clear
2:53 AM 46.0 °F - 37.9 °F 73% 30.19 in 10.0 mi Calm Calm - N/A   Clear
3:17 AM 46.4 °F - 37.4 °F 71% 30.19 in 10.0 mi Calm Calm - N/A   Partly Cloudy
3:44 AM 44.6 °F 43.1 °F 39.2 °F 81% 30.19 in 10.0 mi North 3.5 mph - N/A   Mostly Cloudy
3:53 AM 46.0 °F 44.8 °F 42.1 °F 86% 30.19 in 4.0 mi NNW 3.5 mph - N/A   Mostly Cloudy
4:45 AM 44.6 °F 43.1 °F 42.8 °F 93% 30.17 in 1.8 mi North 3.5 mph - N/A   Overcast
4:47 AM 44.6 °F 43.1 °F 44.6 °F 100% 30.17 in 1.0 mi North 3.5 mph - N/A   Mist
4:53 AM 45.0 °F 42.6 °F 44.1 °F 97% 30.17 in 0.2 mi NNW 4.6 mph - N/A Fog Fog
5:09 AM 44.6 °F - 42.8 °F 93% 30.17 in 1.2 mi Calm Calm - N/A   Overcast
5:11 AM 44.6 °F 43.1 °F 42.8 °F 93% 30.17 in 3.0 mi NW 3.5 mph - N/A   Overcast
5:51 AM 44.6 °F - 39.2 °F 81% 30.17 in 10.0 mi Calm Calm - N/A   Scattered Clouds
5:53 AM 45.0 °F - 39.9 °F 82% 30.17 in 10.0 mi Calm Calm - N/A   Partly Cloudy
6:53 AM 45.0 °F - 39.0 °F 80% 30.18 in 10.0 mi Calm Calm - N/A   Clear
7:53 AM 46.0 °F - 39.0 °F 76% 30.18 in 10.0 mi Calm Calm - N/A   Clear
8:53 AM 48.0 °F - 39.9 °F 74% 30.19 in 10.0 mi Calm Calm - N/A   Clear
9:53 AM 54.0 °F - 37.9 °F 55% 30.20 in 10.0 mi Calm Calm - N/A   Clear
10:53 AM 57.9 °F - 36.0 °F 44% 30.19 in 10.0 mi Calm Calm - N/A   Clear
11:53 AM 57.0 °F - 39.9 °F 53% 30.19 in 10.0 mi WSW 10.4 mph - N/A   Scattered Clouds
12:53 PM 61.0 °F - 41.0 °F 48% 30.16 in 10.0 mi East 3.5 mph - N/A   Clear
1:53 PM 60.1 °F - 41.0 °F 49% 30.14 in 10.0 mi SW 6.9 mph - N/A   Clear
2:53 PM 62.1 °F - 39.0 °F 43% 30.14 in 10.0 mi Calm Calm - N/A   Clear
3:53 PM 59.0 °F - 42.1 °F 53% 30.14 in 10.0 mi SSW 5.8 mph - N/A   Clear
4:53 PM 54.0 °F - 46.9 °F 77% 30.15 in 10.0 mi WSW 3.5 mph - N/A   Clear
5:53 PM 52.0 °F - 48.0 °F 86% 30.15 in 10.0 mi Calm Calm - N/A   Clear
6:53 PM 51.1 °F - 46.9 °F 86% 30.16 in 9.0 mi Calm Calm - N/A   Clear
7:53 PM 46.9 °F - 43.0 °F 86% 30.19 in 10.0 mi North 4.6 mph - N/A   Clear
8:53 PM 46.9 °F - 42.1 °F 83% 30.19 in 10.0 mi NW 4.6 mph - N/A   Mostly Cloudy
9:04 PM 46.4 °F 43.5 °F 42.8 °F 87% 30.19 in 10.0 mi NW 5.8 mph - N/A   Partly Cloudy
9:53 PM 46.0 °F 44.8 °F 42.1 °F 86% 30.19 in 10.0 mi NW 3.5 mph - N/A   Clear
10:53 PM 46.0 °F 43.9 °F 42.1 °F 86% 30.21 in 10.0 mi NW 4.6 mph - N/A   Clear
11:53 PM 44.1 °F 41.5 °F 41.0 °F 89% 30.21 in 10.0 mi NW 4.6 mph - N/A   Clear